Tracking 33747 objects as of 12-Apr-2026
HD Live streaming from Space Station
objects crossing your sky now

KUIPER-00220

Track KUIPER-00220 now!
10-day predictions
KUIPER-00220 is classified as:


NORAD ID: 67781
Int'l Code: 2026-030T
Perigee: 460.0 km
Apogee: 471.9 km
Inclination: 51.9 °
Period: 93.8 minutes
Semi major axis: 6836 km
RCS: Unknown
Launch date: February 12, 2026
Source: France (FR)
Launch site: FRENCH GUIANA (FRGUI)
Your satellite tracking list
Your tracking list is empty




NASA's NSSDC Master Catalog

Two Line Element Set (TLE):
1 67781U 26030T   26101.58610955  .00025536  00000-0  73190-3 0  9993
2 67781  51.8820  60.8081 0008643 159.2937 200.8401 15.35707504 10143
Source of the keplerian elements: AFSPC